[[{"header":{"parameterUnit":"m.s-1","parameterCategory":1,"la1":30.2992,"la2":30.254,"lo1":-89.0895,"lo2":-89.0443,"dy":0.0025,"dx":0.0025,"nx":19,"ny":19,"refTime":"2026-04-09T03:00:00:Z","depth":0,"parameterNumber":2,"parameterNumberName":"U-component_of_WINDS"},"data":[0,0,0,-6.5768,-6.5771,-6.5888,-6.5889,-6.6077,-6.6079,0,0,0,0,0,0,0,0,0,0,0,-6.5755,-6.5757,-6.5767,-6.5771,-6.5888,-6.5889,-6.6076,-6.6079,0,0,0,0,0,0,0,0,0,0,0,-6.5754,-6.5756,-6.5759,-6.5772,-6.5888,-6.5889,-6.6076,-6.5974,0,0,0,0,0,0,0,0,0,0,-6.5853,-6.5863,-6.5756,-6.5759,-6.5772,-6.5888,-6.5889,-6.5968,-6.598,-6.6039,0,-6.6097,0,-6.6091,-6.6094,-6.6094,0,0,0,-6.5755,-6.5853,-6.5865,-6.5759,-6.5774,-6.5888,-6.5831,-6.5975,-6.5988,-6.6055,-6.6099,-6.6105,-6.6094,-6.6095,-6.6096,-6.649,-6.6493,0,0,-6.5748,-6.5788,-6.5856,-6.5875,-6.5858,-6.5827,-6.5835,-6.5982,-6.6033,-6.61,-6.6109,-6.6097,-6.6097,-6.6098,-6.6487,-6.6491,0,0,0,-6.574,-6.5784,-6.5791,-6.5868,-6.5886,-6.5831,-6.584,-6.6026,-6.6025,-6.6111,-6.61,-6.6098,-6.6101,-6.6485,-6.6489,-6.6656,0,0,0,-6.5736,-6.5779,-6.5789,-6.5815,-6.5884,-6.5958,-6.5881,-6.6015,-6.603,-6.6099,-6.6098,-6.6103,-6.6482,-6.6487,-6.6645,-6.6729,0,0,0,-6.574,-6.578,-6.5804,-6.5817,-6.5869,-6.5954,-6.5961,-6.6017,-6.6025,-6.6095,-6.6103,-6.648,-6.6486,-6.6636,-6.6713,-6.6845,0,0,0,-6.5755,-6.5951,-6.5808,-6.6022,-6.5868,-6.6057,-6.596,-6.6098,-6.6178,-6.6099,-6.6482,-6.6488,-6.6633,-6.6703,-6.6835,-6.6964,-6.7021,0,0,-6.6025,-6.5985,-6.6108,-6.5983,-6.6208,-6.6036,-6.6285,-6.6321,-6.6291,-6.6426,-6.6435,-6.6649,-6.6712,-6.6843,-6.7326,-6.7372,0,0,0,-6.6207,-6.6297,-6.6347,-6.6425,-6.6457,-6.6492,-6.6485,-6.6498,-6.661,-6.6368,-6.6731,-6.6767,-6.6842,-6.6902,-6.6941,-6.7003,-6.6517,-6.6517,-6.6516,-6.6647,-6.6598,-6.6799,-6.6765,-6.6842,-6.6834,-6.6892,-6.6908,-6.6836,-6.6923,-6.6963,-6.7262,-6.7334,-6.7363,-6.7428,-6.7027,-6.7027,-6.7028,-6.7028,-6.7038,-6.7157,-6.7057,-6.7217,-6.7165,-6.7298,-6.7298,-6.7243,-6.7361,-6.7228,-6.7292,-6.7152,-6.7414,-6.7469,-6.704,-6.7038,-6.7037,-6.7036,-6.7035,-6.732,-6.7369,-6.7382,-6.749,-6.7579,-6.7538,-6.7656,-6.7604,-6.7556,-6.7619,-6.7656,-6.7653,-6.7644,-6.764,-6.7641,-6.7642,-6.7643,-6.7644,-6.7645,-6.7608,-6.7617,-6.7722,-6.7774,-6.7817,-6.7868,-6.7863,-6.7904,-6.7938,-6.7891,-6.7891,-6.7812,-6.7449,-6.7359,-6.7661,-6.7658,-6.7656,-6.7654,-6.7653,-6.8024,-6.7922,-6.8084,-6.8129,-6.8185,-6.8277,-6.821,-6.83,-6.8327,-6.8387,-6.8294,-6.8034,-6.799,-6.7959,-6.7884,-6.8303,-6.8303,-6.8303,-6.8304,-6.8263,-6.8235,-6.839,-6.8464,-6.853,-6.8486,-6.8673,-6.8671,-6.8653,-6.8667,-6.8599,-6.8496,-6.8466,-6.8439,-6.8398,-6.8327,-6.885,-6.885,-6.8851,-6.8516,-6.8492,-6.8661,-6.8641,-6.8682,-6.8718,-6.8892,-6.8982,-6.894,-6.8872,-6.8678,-6.8655,-6.8487,-6.8434,-6.8362,-6.8298,-6.8168,0,0]},{"header":{"parameterUnit":"m.s-1","parameterCategory":1,"la1":30.2992,"la2":30.254,"lo1":-89.0895,"lo2":-89.0443,"dy":0.0025,"dx":0.0025,"nx":19,"ny":19,"refTime":"2026-04-09T03:00:00:Z","depth":0,"parameterNumber":3,"parameterNumberName":"V-component_of_WINDS"},"data":[0,0,0,-0.2197,-0.2197,-0.2178,-0.2178,-0.2167,-0.2167,0,0,0,0,0,0,0,0,0,0,0,-0.2211,-0.2211,-0.2197,-0.2197,-0.2178,-0.2178,-0.2167,-0.2167,0,0,0,0,0,0,0,0,0,0,0,-0.2211,-0.2211,-0.2212,-0.2197,-0.2178,-0.2178,-0.2167,-0.2176,0,0,0,0,0,0,0,0,0,0,-0.2192,-0.2214,-0.2211,-0.2212,-0.2197,-0.2178,-0.2178,-0.2176,-0.2176,-0.2181,0,-0.2189,0,-0.2178,-0.2167,-0.2167,0,0,0,-0.219,-0.2215,-0.2202,-0.2212,-0.2197,-0.2178,-0.2185,-0.2176,-0.2175,-0.218,-0.2188,-0.2188,-0.2177,-0.2167,-0.2167,-0.222,-0.222,0,0,-0.2191,-0.2212,-0.2202,-0.2202,-0.2206,-0.2185,-0.2184,-0.2175,-0.2186,-0.2188,-0.2187,-0.2177,-0.2167,-0.2167,-0.2219,-0.222,0,0,0,-0.2199,-0.2214,-0.22,-0.2202,-0.2198,-0.2185,-0.2183,-0.2186,-0.218,-0.2187,-0.2177,-0.2167,-0.2167,-0.2218,-0.2219,-0.2267,0,0,0,-0.2199,-0.2218,-0.2201,-0.2214,-0.2198,-0.2192,-0.2195,-0.218,-0.2179,-0.2177,-0.2167,-0.2167,-0.2218,-0.2219,-0.2264,-0.2286,0,0,0,-0.2209,-0.2219,-0.2219,-0.2215,-0.2208,-0.2192,-0.2185,-0.218,-0.2173,-0.2167,-0.2167,-0.2217,-0.2219,-0.2262,-0.2282,-0.2305,0,0,0,-0.2227,-0.2262,-0.222,-0.2256,-0.2208,-0.2221,-0.2185,-0.2193,-0.2193,-0.2167,-0.2218,-0.2219,-0.2261,-0.2279,-0.2303,-0.2328,-0.2341,0,0,-0.2283,-0.227,-0.2289,-0.2251,-0.2276,-0.2222,-0.2254,-0.2235,-0.2215,-0.2219,-0.222,-0.2265,-0.2281,-0.2304,-0.2405,-0.2416,0,0,0,-0.2314,-0.2328,-0.233,-0.2331,-0.2316,-0.2305,-0.2278,-0.2271,-0.2273,-0.2222,-0.2279,-0.2288,-0.2301,-0.2312,-0.2321,-0.233,-0.2225,-0.2225,-0.2225,-0.2425,-0.2397,-0.2426,-0.2395,-0.2396,-0.2367,-0.2365,-0.2349,-0.2322,-0.2335,-0.2337,-0.2401,-0.2416,-0.2422,-0.2432,-0.2348,-0.2348,-0.2348,-0.2348,-0.2505,-0.252,-0.248,-0.2494,-0.2463,-0.2475,-0.2447,-0.2427,-0.2432,-0.2399,-0.2408,-0.2375,-0.2434,-0.2441,-0.2352,-0.2351,-0.2351,-0.235,-0.235,-0.2575,-0.2577,-0.2566,-0.2563,-0.2564,-0.2531,-0.2537,-0.2509,-0.2483,-0.2493,-0.249,-0.2489,-0.2484,-0.2493,-0.2493,-0.2494,-0.2494,-0.2494,-0.2494,-0.2651,-0.2638,-0.2647,-0.2633,-0.2628,-0.2619,-0.2589,-0.2584,-0.2571,-0.255,-0.2549,-0.252,-0.2445,-0.2427,-0.2498,-0.2497,-0.2496,-0.2496,-0.2496,-0.2743,-0.2717,-0.2732,-0.2727,-0.2707,-0.2709,-0.2672,-0.2664,-0.2655,-0.2659,-0.2626,-0.2576,-0.256,-0.2553,-0.2538,-0.2633,-0.2633,-0.2633,-0.2633,-0.2802,-0.2791,-0.2798,-0.2793,-0.2784,-0.2752,-0.2767,-0.2743,-0.2714,-0.2706,-0.2688,-0.2665,-0.2659,-0.2647,-0.2638,-0.2623,-0.2738,-0.2738,-0.2738,-0.2857,-0.2843,-0.2862,-0.2833,-0.2814,-0.2799,-0.2812,-0.2807,-0.2768,-0.2742,-0.27,-0.2695,-0.2658,-0.2648,-0.2622,-0.2608,-0.258,0,0]}]]